sat.trackr.live / text

‹ back to catalog

YAOGAN-39 05A

NORAD 58557 · 2023-194A

PAYLOAD ACTIVE UNKNOWN

§ Identity

Operator
Country
PRC
Launch date
2023-12-10
Launch site
XICLF
Launch vehicle
Mass (kg)
RCS (m²)

External: N2YO · Heavens-Above · Gunter

§ Orbital elements

Epoch: 2026-09-21T22:03:35.525952Z

Period
94.57 min
Inclination
35.0008°
Eccentricity
0.0004436
Mean motion
15.22694794 rev/d
Perigee alt
494.7 km
Apogee alt
500.8 km
Semi-major
6,875.9 km
B*
2.6877e-4
RAAN
169.0643°
Arg perigee
111.1721°
Mean anomaly
248.9468°
Rev number
15,511

§ Raw data

YAOGAN-39 05A1 58557U 23194A   26264.91916118  .00006386  00000+0  26877-3 0  99902 58557  35.0008 169.0643 0004436 111.1721 248.9468 15.22694794155111

JSON: /api/v1/satellites/58557 · /tle

For live sub-satellite position, see the globe view (requires WebGL).

§ Visibility from observer

Set your observer location to see the next 7 days of passes ≥ 10°. The values pass through the URL so the page stays shareable.

No JS? Fill the form by hand. The geolocation button needs JavaScript.